Location: LowerSackville
(44.7845°N, 63.6771°W)
Time: 20:02:48
(UTC-04:00)

Tiangong - Visible Passes

Search period start: 08 November 2024 00:00
Search period end: 18 November 2024 00:00
Orbit: 383 x 397 km, 41.5° (Epoch: 08 November)

Date Brightness Start Highest point End Pass type
(mag) Time Alt. Az. Time Alt. Az. Time Alt. Az.
08 Nov 0.8 18:58:58 10° S 18:59:02 10° S 18:59:02 10° S visible
10 Nov -0.3 18:38:51 10° SSW 18:40:57 22° S 18:40:57 22° S visible
11 Nov 0.1 17:41:17 10° SSW 17:43:23 16° SSE 17:45:28 10° ESE visible
11 Nov 0.6 19:16:49 10° WSW 19:17:48 18° SW 19:17:48 18° SW visible
12 Nov -1.0 18:18:40 10° SW 18:21:33 32° SSE 18:22:11 29° SE visible
13 Nov -0.4 17:20:33 10° SW 17:23:12 24° SSE 17:25:51 10° ESE visible
13 Nov -0.5 18:56:41 10° WSW 18:58:44 32° SW 18:58:44 32° SW visible
14 Nov -1.2 17:58:12 10° WSW 18:01:13 40° S 18:02:53 22° ESE visible
14 Nov 1.3 19:34:50 10° W 19:35:09 12° WSW 19:35:09 12° WSW visible
15 Nov -1.4 18:36:09 10° WSW 18:39:11 45° S 18:39:11 45° S visible
16 Nov -1.3 17:37:23 10° WSW 17:40:26 45° S 17:43:09 12° ESE visible
16 Nov 0.6 19:14:09 10° W 19:15:25 19° WSW 19:15:25 19° WSW visible
17 Nov -1.1 18:15:10 10° W 18:18:11 40° S 18:19:18 28° SE visible
